EWG10 EDDL-EDDK

Flight info

Callsign EWG10
Flight time 0h 34m
Altitude 23000
Route GMH1T GMH Z841 GETNI/N0416F220 T858 KOPAG KOPAG1G
Aircraft A320/M-SDE3FGHIRWY/LB1

Departure

Time 2026-05-01 09:13
Airport Düsseldorf Airport (EDDL)

Arrival

Time 2026-05-01 09:47
Airport Cologne Bonn Airport (EDDK)
Time Latitude Longitude Altitude Speed Heading
2026-05-01 08:38 51.28549 6.77182 125 ft 0 kts 323°
2026-05-01 09:02 51.28549 6.77183 137 ft 1 kts 323°
2026-05-01 09:02 51.28530 6.77206 137 ft 4 kts 326°
2026-05-01 09:03 51.28506 6.77224 137 ft 4 kts 355°
2026-05-01 09:03 51.28484 6.77223 137 ft 4 kts 36°
2026-05-01 09:03 51.28466 6.77192 137 ft 4 kts 54°
2026-05-01 09:03 51.28463 6.77184 137 ft 0 kts 53°
2026-05-01 09:06 51.28464 6.77185 137 ft 1 kts 53°
2026-05-01 09:06 51.28468 6.77195 137 ft 2 kts 53°
2026-05-01 09:06 51.28476 6.77212 137 ft 2 kts 53°
2026-05-01 09:07 51.28487 6.77235 137 ft 3 kts 53°
2026-05-01 09:07 51.28501 6.77265 137 ft 4 kts 53°
2026-05-01 09:07 51.28518 6.77301 137 ft 4 kts 53°
2026-05-01 09:07 51.28539 6.77346 137 ft 8 kts 55°
2026-05-01 09:08 51.28577 6.77428 137 ft 9 kts 53°
2026-05-01 09:08 51.28617 6.77512 137 ft 9 kts 53°
2026-05-01 09:08 51.28657 6.77596 137 ft 10 kts 53°
2026-05-01 09:08 51.28666 6.77707 137 ft 13 kts 91°
2026-05-01 09:09 51.28726 6.77819 137 ft 13 kts 36°
2026-05-01 09:09 51.28772 6.77951 137 ft 16 kts 53°
2026-05-01 09:09 51.28846 6.78109 137 ft 20 kts 54°
2026-05-01 09:09 51.28941 6.78279 137 ft 15 kts
2026-05-01 09:10 51.29025 6.78204 137 ft 13 kts 339°
2026-05-01 09:10 51.29118 6.78207 137 ft 14 kts
2026-05-01 09:10 51.29213 6.78215 138 ft 14 kts 359°
2026-05-01 09:10 51.29253 6.78193 138 ft 0 kts 331°
2026-05-01 09:11 51.29270 6.78178 139 ft 8 kts 329°
2026-05-01 09:12 51.29320 6.78124 140 ft 8 kts 326°
2026-05-01 09:12 51.29325 6.78062 140 ft 7 kts 226°
2026-05-01 09:12 51.29286 6.77986 139 ft 18 kts 234°
2026-05-01 09:12 51.29003 6.77408 132 ft 114 kts 233°
2026-05-01 09:13 51.28386 6.76138 464 ft 156 kts 226°
2026-05-01 09:13 51.27703 6.74759 1433 ft 162 kts 226°
2026-05-01 09:13 51.26985 6.73224 2194 ft 184 kts 226°
2026-05-01 09:13 51.26174 6.71479 2897 ft 208 kts 225°
2026-05-01 09:14 51.25257 6.69512 3625 ft 234 kts 226°
2026-05-01 09:14 51.24231 6.67327 4491 ft 256 kts 226°
2026-05-01 09:14 51.22924 6.65371 4873 ft 258 kts 210°
2026-05-01 09:14 51.21319 6.64167 4994 ft 253 kts 192°
2026-05-01 09:15 51.19596 6.63799 5009 ft 249 kts 176°
2026-05-01 09:15 51.17874 6.64065 5003 ft 249 kts 172°
2026-05-01 09:15 51.16168 6.64501 5048 ft 247 kts 160°
2026-05-01 09:15 51.14665 6.65807 5204 ft 248 kts 140°
2026-05-01 09:16 51.13585 6.67958 5320 ft 252 kts 118°
2026-05-01 09:16 51.13114 6.70593 5345 ft 258 kts 97°
2026-05-01 09:16 51.13180 6.73471 5378 ft 262 kts 90°
2026-05-01 09:17 51.13415 6.79320 7773 ft 266 kts 89°
2026-05-01 09:17 51.13531 6.82278 9074 ft 270 kts 89°
2026-05-01 09:17 51.13758 6.88433 11030 ft 297 kts 89°
2026-05-01 09:18 51.13879 6.91854 11579 ft 322 kts 89°
2026-05-01 09:18 51.14148 6.99390 13035 ft 351 kts 88°
2026-05-01 09:19 51.14437 7.07280 14912 ft 362 kts 88°
2026-05-01 09:19 51.14583 7.11301 15763 ft 367 kts 88°
2026-05-01 09:19 51.14729 7.15389 16626 ft 372 kts 88°
2026-05-01 09:20 51.15016 7.23655 18345 ft 381 kts 88°
2026-05-01 09:20 51.15301 7.32182 19887 ft 390 kts 87°
2026-05-01 09:21 51.15586 7.40908 21168 ft 398 kts 87°
2026-05-01 09:21 51.15728 7.45317 21340 ft 400 kts 87°
2026-05-01 09:21 51.16010 7.54164 21380 ft 399 kts 87°
2026-05-01 09:22 51.16287 7.63005 21381 ft 399 kts 87°
2026-05-01 09:22 51.16556 7.71830 21391 ft 399 kts 87°
2026-05-01 09:23 51.16687 7.76238 21384 ft 398 kts 87°
2026-05-01 09:23 51.16029 7.84882 21391 ft 400 kts 116°
2026-05-01 09:24 51.11797 7.90380 21389 ft 409 kts 162°
2026-05-01 09:24 51.08959 7.90730 21386 ft 415 kts 185°
2026-05-01 09:24 51.03997 7.86236 21390 ft 426 kts 231°
2026-05-01 09:25 51.02410 7.77381 21386 ft 428 kts 276°
2026-05-01 09:25 51.03105 7.67985 21387 ft 429 kts 273°
2026-05-01 09:26 51.03160 7.63252 21384 ft 428 kts 269°
2026-05-01 09:26 51.02606 7.53836 21379 ft 428 kts 260°
2026-05-01 09:26 51.02049 7.49113 21131 ft 448 kts 258°
2026-05-01 09:27 51.00318 7.39742 20623 ft 425 kts 243°
2026-05-01 09:27 50.98858 7.35776 20376 ft 408 kts 233°
2026-05-01 09:27 50.97142 7.32312 20133 ft 392 kts 226°
2026-05-01 09:28 50.95437 7.29035 19885 ft 381 kts 237°
2026-05-01 09:28 50.94588 7.25138 19647 ft 373 kts 263°
2026-05-01 09:28 50.94866 7.21134 19409 ft 363 kts 290°
2026-05-01 09:28 50.96167 7.17865 19172 ft 342 kts 319°
2026-05-01 09:29 50.99930 7.14139 18695 ft 301 kts 333°
2026-05-01 09:29 51.01711 7.12546 18434 ft 287 kts 333°
2026-05-01 09:30 51.05042 7.09551 17898 ft 263 kts 332°
2026-05-01 09:30 51.06515 7.07891 17640 ft 258 kts 322°
2026-05-01 09:30 51.09149 7.04016 17118 ft 258 kts 317°
2026-05-01 09:31 51.10436 7.02028 16842 ft 258 kts 317°
2026-05-01 09:31 51.11290 7.00719 16673 ft 257 kts 317°
2026-05-01 09:31 51.13887 6.96813 16161 ft 257 kts 318°
2026-05-01 09:32 51.15194 6.94874 15915 ft 256 kts 318°
2026-05-01 09:32 51.17813 6.91012 15326 ft 259 kts 318°
2026-05-01 09:32 51.19153 6.89043 14917 ft 264 kts 318°
2026-05-01 09:33 51.20518 6.87037 14500 ft 269 kts 318°
2026-05-01 09:33 51.21908 6.84991 14074 ft 275 kts 317°
2026-05-01 09:33 51.24756 6.80794 13152 ft 283 kts 317°
2026-05-01 09:34 51.26210 6.78630 12605 ft 291 kts 315°
2026-05-01 09:34 51.27350 6.75879 11806 ft 307 kts 289°
2026-05-01 09:34 51.27013 6.69165 10323 ft 314 kts 234°
2026-05-01 09:35 51.25592 6.66717 9985 ft 287 kts 210°
2026-05-01 09:35 51.22112 6.65310 9105 ft 246 kts 169°
2026-05-01 09:35 51.20532 6.66110 8650 ft 232 kts 150°
2026-05-01 09:36 51.19242 6.67552 8202 ft 223 kts 141°
2026-05-01 09:36 51.18022 6.69068 7753 ft 220 kts 139°
2026-05-01 09:36 51.16918 6.70689 7309 ft 213 kts 137°
2026-05-01 09:36 51.15844 6.72271 6877 ft 208 kts 138°
2026-05-01 09:37 51.14793 6.73815 6429 ft 204 kts 137°
2026-05-01 09:37 51.12729 6.76835 5515 ft 199 kts 139°
2026-05-01 09:37 51.11710 6.78318 5064 ft 197 kts 139°
2026-05-01 09:38 51.09718 6.81242 4142 ft 192 kts 139°
2026-05-01 09:38 51.08767 6.82641 3992 ft 176 kts 137°
2026-05-01 09:38 51.07909 6.83902 3989 ft 164 kts 139°
2026-05-01 09:39 51.06310 6.86251 4010 ft 143 kts 139°
2026-05-01 09:39 51.05608 6.87282 3994 ft 133 kts 141°
2026-05-01 09:39 51.04955 6.88240 3971 ft 121 kts 139°
2026-05-01 09:40 51.04356 6.89117 3977 ft 114 kts 139°
2026-05-01 09:40 51.03195 6.90816 3994 ft 113 kts 139°
2026-05-01 09:40 51.02618 6.91661 3991 ft 113 kts 139°
2026-05-01 09:41 51.02038 6.92510 3914 ft 113 kts 139°
2026-05-01 09:41 51.00879 6.94206 3668 ft 113 kts 139°
2026-05-01 09:41 51.00297 6.95055 3547 ft 114 kts 140°
2026-05-01 09:42 50.99710 6.95913 3395 ft 117 kts 139°
2026-05-01 09:42 50.99118 6.96780 3233 ft 114 kts 139°
2026-05-01 09:42 50.97969 6.98458 2929 ft 112 kts 138°
2026-05-01 09:43 50.96823 7.00132 2629 ft 111 kts 138°
2026-05-01 09:43 50.96257 7.00957 2482 ft 110 kts 139°
2026-05-01 09:43 50.95686 7.01788 2341 ft 114 kts 138°
2026-05-01 09:44 50.94542 7.03458 2046 ft 112 kts 137°
2026-05-01 09:44 50.93951 7.04316 1877 ft 115 kts 137°
2026-05-01 09:44 50.93369 7.05164 1725 ft 112 kts 137°
2026-05-01 09:45 50.92803 7.05989 1570 ft 110 kts 139°
2026-05-01 09:45 50.91667 7.07642 1258 ft 110 kts 138°
2026-05-01 09:45 50.91104 7.08461 1109 ft 110 kts 138°
2026-05-01 09:46 50.90543 7.09276 954 ft 109 kts 138°
2026-05-01 09:46 50.89984 7.10088 805 ft 109 kts 138°
2026-05-01 09:46 50.89429 7.10895 661 ft 109 kts 139°
2026-05-01 09:46 50.88870 7.11707 509 ft 107 kts 140°
2026-05-01 09:47 50.88322 7.12503 365 ft 106 kts 139°
2026-05-01 09:47 50.87797 7.13273 247 ft 96 kts 137°
2026-05-01 09:47 50.87404 7.13842 248 ft 62 kts 138°
2026-05-01 09:47 50.87151 7.14242 259 ft 43 kts 135°
2026-05-01 09:48 50.86953 7.14512 257 ft 17 kts 143°
2026-05-01 09:48 50.86862 7.14468 257 ft 13 kts 270°
2026-05-01 09:48 50.86885 7.14339 259 ft 12 kts 283°
2026-05-01 09:48 50.86901 7.14194 253 ft 16 kts 280°
2026-05-01 09:49 50.86957 7.14031 250 ft 18 kts 321°
2026-05-01 09:49 50.87056 7.13886 247 ft 21 kts 317°
2026-05-01 09:49 50.87169 7.13722 243 ft 23 kts 317°
2026-05-01 09:49 50.87293 7.13544 239 ft 25 kts 317°
2026-05-01 09:50 50.87425 7.13351 237 ft 27 kts 317°
2026-05-01 09:50 50.87566 7.13148 232 ft 27 kts 318°
2026-05-01 09:50 50.87709 7.12942 231 ft 28 kts 317°
2026-05-01 09:50 50.87789 7.12819 231 ft 3 kts 300°
2026-05-01 09:51 50.87787 7.12740 230 ft 9 kts 263°
2026-05-01 09:51 50.87798 7.12642 230 ft 9 kts 287°
2026-05-01 09:51 50.87816 7.12538 230 ft 9 kts 287°
2026-05-01 09:51 50.87826 7.12490 230 ft 4 kts 288°
2026-05-01 09:52 50.87833 7.12456 233 ft 2 kts 288°
2026-05-01 09:52 50.87834 7.12452 230 ft 0 kts 287°